DW8935 Weather Reports


time (UTC)temp
C
wind
direction
speed
KPH
gust
KPH
rain 1hr
cm
rain 24hr
cm
rain mn
cm
humidity
%
barometer
mb
20260509143036 13 203 0.0 0.0 0.00 0.00 0.00 89 1029.1
20260509141536 13 203 1.6 6.4 0.00 0.00 0.00 88 1029.1
20260509140035 13 203 0.0 1.6 0.00 0.00 0.00 88 1029.0
20260509134538 13 200 0.0 0.0 0.00 0.00 0.00 87 1029.1
20260509133033 13 200 0.0 0.0 0.00 0.00 0.00 87 1029.1
20260509131535 13 200 0.0 0.0 0.00 0.00 0.00 87 1029.1
20260509130033 13 200 0.0 0.0 0.00 0.00 0.00 87 1029.1
20260509124533 13 200 0.0 0.0 0.00 0.00 0.00 87 1029.0
20260509123033 13 200 0.0 0.0 0.00 0.00 0.00 87 1029.2
20260509121538 13 200 0.0 0.0 0.00 0.00 0.00 86 1029.2
20260509120035 13 200 0.0 0.0 0.00 0.00 0.00 86 1029.2
20260509114534 13 200 0.0 0.0 0.00 0.00 0.00 86 1029.2
20260509113030 13 200 0.0 0.0 0.00 0.00 0.00 86 1028.9
20260509111529 13 200 0.0 0.0 0.00 0.00 0.00 86 1028.8
20260509110029 13 200 1.6 6.4 0.00 0.00 0.00 87 1028.7
20260509104534 13 190 0.0 0.0 0.00 0.00 0.00 87 1028.7
20260509103029 13 189 0.0 0.0 0.00 0.00 0.00 87 1028.6
20260509101529 13 168 0.0 0.0 0.00 0.00 0.00 87 1028.6
20260509100027 13 142 0.0 0.0 0.00 0.00 0.00 86 1028.6
20260509094526 14 142 0.0 0.0 0.00 0.00 0.00 86 1028.5
20260509093025 14 142 0.0 0.0 0.00 0.00 0.00 86 1028.5
20260509091532 15 142 0.0 0.0 0.00 0.00 0.00 85 1028.3
20260509090024 15 142 0.0 0.0 0.00 0.00 0.00 86 1028.3
20260509084528 15 142 0.0 0.0 0.00 0.00 0.00 85 1028.1
20260509083024 15 142 0.0 0.0 0.00 0.00 0.00 85 1028.0
20260509081523 15 142 0.0 0.0 0.00 0.00 0.00 85 1027.8
20260509080030 15 142 0.0 0.0 0.00 0.00 0.00 85 1027.6
20260509074525 15 149 0.0 0.0 0.00 0.00 0.00 84 1027.5
20260509073038 15 182 0.0 6.4 0.00 0.00 0.00 83 1027.3
20260509071522 16 130 0.0 4.8 0.00 0.00 0.00 82 1027.2
20260509070023 16 165 0.0 6.4 0.00 0.00 0.00 81 1027.2
20260509064523 16 189 0.0 4.8 0.00 0.00 0.00 80 1027.1
20260509063028 16 263 1.6 6.4 0.00 0.00 0.00 79 1027.1
20260509061524 16 261 0.0 4.8 0.00 0.00 0.00 78 1027.0
20260509060022 16 273 0.0 6.4 0.00 0.00 0.00 77 1026.9
20260509054529 17 279 1.6 8.0 0.00 0.00 0.00 76 1026.9
20260509053020 17 246 1.6 6.4 0.00 0.00 0.00 76 1026.8
20260509051521 17 237 3.2 9.7 0.00 0.00 0.00 75 1026.8
20260509050032 17 211 3.2 11.3 0.00 0.00 0.00 74 1026.8
20260509044520 18 225 1.6 8.0 0.00 0.00 0.00 73 1026.9
20260509043036 17 238 1.6 6.4 0.00 0.00 0.00 73 1026.8
20260509041519 17 210 1.6 6.4 0.00 0.00 0.00 71 1026.9
20260509040017 17 308 1.6 4.8 0.00 0.00 0.00 73 1026.9
20260509034516 17 213 0.0 4.8 0.00 0.00 0.00 74 1027.0
20260509033016 17 218 0.0 4.8 0.00 0.00 0.00 72 1027.0
20260509031518 17 219 0.0 4.8 0.00 0.00 0.00 73 1027.3
20260509030014 17 150 0.0 6.4 0.00 0.00 0.00 73 1027.3
20260509024511 17 78 3.2 8.0 0.00 0.00 0.00 77 1027.4
20260509023017 16 150 0.0 4.8 0.00 0.00 0.00 76 1027.7
20260509021517 16 169 0.0 9.7 0.00 0.00 0.00 74 1027.9
20260509020008 16 205 1.6 6.4 0.00 0.00 0.00 75 1028.0
20260509014505 16 279 0.0 8.0 0.00 0.00 0.00 75 1028.2
20260509013013 16 234 1.6 8.0 0.00 0.00 0.00 76 1028.2
20260509011503 15 217 0.0 4.8 0.00 0.00 0.00 80 1028.4
20260509010001 16 190 4.8 9.7 0.00 0.00 0.00 80 1028.4
20260509004625 16 184 1.6 6.4 0.00 0.00 0.00 82 1028.4
20260509004505 16 184 3.2 6.4 0.00 0.00 0.00 82 1028.3
20260509003101 15 144 0.0 6.4 0.00 0.00 0.00 86 1028.2
20260509001555 15 183 3.2 11.3 0.00 0.00 0.00 89 1028.3
20260509000053 14 200 1.6 4.8 0.00 0.00 0.00 91 1028.4
20260508234552 13 184 1.6 9.7 0.00 0.00 0.00 92 1028.3
20260508233058 13 207 0.0 3.2 0.00 0.00 0.00 93 1028.3
20260508231545 13 253 0.0 4.8 0.00 0.00 0.00 93 1028.3
20260508230054 12 241 0.0 3.2 0.00 0.00 0.00 93 1028.2
20260508224540 12 292 0.0 0.0 0.00 0.00 0.00 93 1028.0
20260508223039 12 294 0.0 0.0 0.00 0.00 0.00 93 1027.9
20260508221540 11 294 0.0 1.6 0.00 0.00 0.00 93 1027.8
20260508220036 11 294 0.0 1.6 0.00 0.00 0.00 92 1027.6
20260508214536 11 292 0.0 0.0 0.00 0.00 0.00 92 1027.5
20260508213035 11 292 0.0 0.0 0.00 0.00 0.00 92 1027.5
20260508211536 11 292 0.0 1.6 0.00 0.00 0.00 92 1027.4
20260508210039 12 202 0.0 0.0 0.00 0.00 0.00 92 1027.3
20260508204537 12 202 0.0 0.0 0.00 0.00 0.00 92 1027.3
20260508203032 12 203 0.0 1.6 0.00 0.00 0.00 92 1027.1
20260508201531 12 306 0.0 0.0 0.00 0.00 0.00 92 1027.0
20260508200039 11 306 0.0 0.0 0.00 0.00 0.00 92 1026.8
20260508194529 11 306 0.0 0.0 0.00 0.00 0.00 91 1026.6
20260508193028 12 306 0.0 0.0 0.00 0.00 0.00 91 1026.4
20260508191525 12 306 0.0 0.0 0.00 0.00 0.00 91 1026.3
20260508190029 12 308 0.0 1.6 0.00 0.00 0.00 91 1026.2
20260508184550 12 306 0.0 3.2 0.00 0.00 0.00 91 1026.2
20260508183024 12 300 0.0 3.2 0.00 0.00 0.00 90 1026.0
20260508181539 12 298 0.0 4.8 0.00 0.00 0.00 90 1025.9
20260508180020 11 300 0.0 3.2 0.00 0.00 0.00 90 1025.8
20260508174520 11 294 0.0 3.2 0.00 0.00 0.00 88 1025.9
20260508173020 11 271 0.0 0.0 0.00 0.00 0.00 87 1025.8
20260508171520 12 271 0.0 3.2 0.00 0.00 0.00 87 1025.8
20260508170019 12 238 0.0 4.8 0.00 0.00 0.00 88 1026.0
20260508164518 12 219 0.0 6.4 0.00 0.00 0.00 88 1025.8
20260508163017 12 275 0.0 4.8 0.00 0.00 0.00 88 1025.8
20260508161516 11 269 0.0 3.2 0.00 0.00 0.00 88 1025.8
20260508160018 11 263 0.0 0.0 0.00 0.00 0.00 88 1025.7
20260508154516 11 263 0.0 0.0 0.00 0.00 0.00 88 1025.8
20260508153016 11 263 0.0 4.8 0.00 0.00 0.00 88 1025.7
20260508151514 11 278 0.0 0.0 0.00 0.00 0.00 88 1025.7
20260508150019 11 275 0.0 0.0 0.00 0.00 0.00 87 1025.6
20260508144527 11 275 0.0 0.0 0.00 0.00 0.00 86 1025.7